Regional Weather Roundup
Issued by NWS

Home | Current Version | Previous Version | Graphics & Text | Print | Product List | Glossary On
Versions: 1 2 3 4 5 6 7 8 9 10 11 12 13 14 15 16 17 18 19 20 21 22 23 24 25 26 27 28 29 30 31 32 33 34 35 36 37 38 39 40 41 42 43 44 45 46 47 48 49 50
000
ASUS43 KDTX 190810
RWRMI
MICHIGAN HOURLY REGIONAL WEATHER ROUNDUP
NATIONAL WEATHER SERVICE DETROIT/PONTIAC MI
300 AM EST FRI DEC 19 2014

NOTE: "FAIR" INDICATES FEW OR NO CLOUDS BELOW 12,000 FEET WITH NO
SIGNIFICANT WEATHER AND/OR OBSTRUCTION TO VISIBILITY.

MIZ047>049-052>055-059>063-066>070-074>076-081>083-190900-
SOUTHEAST LOWER MICHIGAN

CITY           SKY/WX    TMP DP  RH WIND       PRES   REMARKS
ADRIAN         CLOUDY    29  26  89 NW7       30.21R WCI  22
ALMA           CLOUDY    26  21  82 N3        30.23R
ANN ARBOR      CLOUDY    29  27  92 NE7       30.19R WCI  22
BAD AXE        CLOUDY    25  21  85 NW7       30.20R WCI  17
CARO           CLOUDY    27  22  82 NW6       30.21R WCI  20
DETROIT CITY   CLOUDY    29  22  75 N8        30.21R WCI  21
DETROIT        CLOUDY    29  24  82 N7        30.21R WCI  22
FLINT          CLOUDY    27  21  78 N6        30.22R WCI  20
GROSSE ILE     CLOUDY    28  27  93 N7        30.19S WCI  21
HILLSDALE      CLOUDY    28  27  98 W6        30.19R FOG     WCI  21
HOWELL         CLOUDY    25  24  95 N5        30.20R WCI  19

CITY           SKY/WX    TMP DP  RH WIND       PRES   REMARKS
JACKSON        CLOUDY    28  26  92 W3        30.19R FOG
LAMBERTVILLE   CLOUDY    32  28  86 W5        30.21R WCI  27
LANSING        CLOUDY    27  24  89 N5        30.22R WCI  22
LAPEER         CLOUDY    26  22  87 N5        30.20S WCI  20
MASON          CLOUDY    27  25  94 NE5       30.20R FOG     WCI  21
MONROE         CLOUDY    30  28  93 NW5       30.19R WCI  25
MT. CLEMENS    CLOUDY    27  25  93 NW7       30.18S WCI  20
PONTIAC        CLOUDY    25  22  88 N7        30.18R WCI  17
PORT HOPE        N/A     29  22  75 NW9       30.18R WCI  20
PORT HURON     CLOUDY    27  23  86 W6        30.19R WCI  20
TRI CITIES     CLOUDY    26  19  74 CALM      30.24R
TROY           CLOUDY    28  23  82 N8        30.22R WCI  20
SAGINAW HB     CLOUDY    27  21  80 W3        30.23R
$$
MIZ043>046-050>051-056>058-064>065-071>073-077>080-190900-
SOUTHWEST LOWER MICHIGAN

CITY           SKY/WX    TMP DP  RH WIND       PRES   REMARKS
BATTLE CREEK   CLOUDY    29  26  89 W5        30.20R FOG     WCI  24
BENTON HARBOR  CLOUDY    31  25  78 CALM      30.23R
BIG RAPIDS     CLOUDY    24  21  88 CALM      30.21R
COLDWATER      CLOUDY    27  26  94 W5        30.21R FOG     WCI  22
FREMONT        FAIR      20  18  91 CALM      30.23R
HOLLAND        PTCLDY    28  19  69 CALM      30.24R
GRAND RAPIDS   CLOUDY    28  22  78 N6        30.22R WCI  22
IONIA          CLOUDY    28  23  81 N7        30.20S WCI  21
KALAMAZOO      CLOUDY    29  25  85 W8        30.21R WCI  21
LUDINGTON      CLEAR     14  11  87 CALM      30.25R
MARSHALL       CLOUDY    27  26  94 W5        30.20R FOG     WCI  22
MOUNT PLEASANT CLOUDY    24  19  83 N5        30.23R WCI  18
MUSKEGON       CLEAR     23  19  85 N3        30.25R
SOUTH HAVEN    CLEAR     26  23  89 CALM      30.23R
$$
MIZ016>042-190900-
NORTHERN LOWER MICHIGAN

CITY           SKY/WX    TMP DP  RH WIND       PRES   REMARKS
ALPENA         CLEAR     14  11  87 CALM      30.23R
BEAVER ISLAND  CLEAR     10   8  92 CALM      30.25R
BELLAIRE       PTCLDY    10   7  89 CALM      30.26R
CADILLAC       CLOUDY    16  14  94 CALM      30.19S
CHARLEVOIX     PTCLDY    13  11  95 CALM      30.27R
FRANKFORT      PTCLDY    11  10  95 CALM      30.25R
GAYLORD        PTCLDY     4   1  88 CALM      30.19R
GRAYLING       PTCLDY     2  -1  85 CALM      30.21S
HARBOR SPRINGS PTCLDY     9   7  89 CALM      30.24R
HOUGHTON LAKE  FAIR      13   9  84 CALM      30.20S
MANISTEE       CLEAR     12   9  85 E5        30.24S WCI   4
OSCODA         CLEAR     14  11  90 NW3       30.21S
PELLSTON       PTCLDY     1  -4  79 CALM      30.25R
ROGERS CITY    PTCLDY    15  13  92 CALM      30.24R
TRAVERSE CITY  PTCLDY    13  10  88 CALM      30.24R
$$
MIZ007>008-015-190900-
EASTERN UPPER MICHIGAN

CITY           SKY/WX    TMP DP  RH WIND       PRES   REMARKS
KINROSS        PTCLDY    10  10 100 CALM      30.24R
MACKINAC ISLAN PTCLDY    19  13  77 NE8       30.24R WCI   9
NEWBERRY       CLOUDY    18  16  91 N3        30.24R
S. S. MARIE    PTCLDY    12   6  77 CALM      30.26R
MUNISING         N/A     21  16  81 S5        30.25R WCI  15
$$
MIZ004>006-011>014-085-190900-
CENTRAL UPPER MICHIGAN

CITY           SKY/WX    TMP DP  RH WIND       PRES   REMARKS
MANISTIQUE     PTCLDY    11  10  93 CALM      30.25R
ESCANABA       PTCLDY    10   9  92 NW5       30.26R WCI   2
MENOMINEE      CLEAR     16  12  86 NW3       30.27R
SAWYER-GWINN   CLOUDY    23  20  87 N6        30.22S WCI  16
$$
MIZ001>003-009>011-084-190900-
WESTERN UPPER MICHIGAN

CITY           SKY/WX    TMP DP  RH WIND       PRES   REMARKS
IRON MOUNTAIN  PTCLDY     3  -1  83 N3        30.24R
HOUGHTON       CLOUDY    15  12  88 N5        30.25R WCI   8
COPPER HARBOR    N/A     25  19  78 W5        30.27R WCI  19
IRONWOOD       MOCLDY     3   0  85 SE3       30.23R
$$

ABBREVIATIONS USED IN REMARKS
   TC - TEMPERATURE IN CELSIUS
  WCI - WIND CHILL INDEX
   HX - HEAT INDEX
  VSB - VISIBILITY



USA.gov is the U.S. government's official web portal to all federal, state and local government web resources and services.